Wind_Speed
18 18 18 21 22 21 22 24 24 25 26 27 29 31 32 35 31 5 3 3 4 14 15 12 9 9 9 6 5 3 6 1 4 2 7 5 2 3 4 3 5 6 2 11 24
19 20 21 21 23 22 23 24 25 26 26 27 29 30 31 33 16 1 6 0 6 12 14 15 11 11 10 7 5 7 7 3 3 5 5 3 6 5 5 7 6 6 6 17 25
20 21 22 23 23 23 23 24 25 26 26 26 29 30 30 26 10 5 8 4 12 13 8 10 8 11 11 7 8 5 7 4 4 2 7 8 10 5 8 4 4 9 13 17 22
18 19 21 23 24 24 25 24 25 25 26 26 28 29 26 8 3 4 5 8 13 5 11 9 9 12 12 10 8 8 6 5 1 5 7 11 13 10 7 3 6 5 15 18 19
18 17 18 20 21 24 25 26 26 26 26 25 26 26 15 11 5 2 2 9 8 7 10 10 11 12 12 11 7 12 6 8 8 9 11 12 12 8 4 3 5 10 14 16 15
17 19 19 19 21 23 25 26 26 26 26 25 25 20 7 14 2 1 2 7 8 11 9 9 6 8 10 9 12 5 12 10 7 10 11 11 11 3 4 5 9 11 12 13 15
16 17 20 20 20 23 25 25 26 26 26 24 21 8 9 14 3 3 3 4 7 8 8 10 4 9 1 10 6 8 10 12 12 10 8 7 11 7 6 7 9 10 11 12 14
15 16 19 21 21 23 25 26 26 27 26 20 11 4 8 5 6 9 8 9 6 8 6 7 6 8 8 2 6 12 11 12 12 7 6 6 3 12 5 7 8 10 10 12 15
15 17 16 18 22 24 25 26 24 22 15 5 2 6 11 4 7 6 7 9 11 9 7 8 10 7 8 11 9 10 13 18 11 7 4 10 5 9 4 3 7 8 8 10 13
16 16 15 16 21 24 26 20 11 3 0 2 5 6 10 5 5 5 5 11 8 13 10 11 9 10 11 12 13 13 15 8 11 8 11 12 9 2 4 4 4 4 8 7 8
16 16 16 13 18 22 22 8 6 7 8 12 1 9 1 4 4 8 9 14 10 15 14 15 11 15 15 15 13 6 10 11 11 7 5 6 5 4 7 6 5 4 4 6 8
17 16 15 13 16 19 9 4 4 4 9 14 18 19 22 8 5 11 11 14 13 16 17 10 16 14 5 7 11 12 13 14 6 5 8 6 8 4 8 10 11 9 6 4 7
16 15 15 13 14 6 6 4 5 6 7 10 19 20 20 20 14 14 16 19 18 19 18 16 4 12 11 12 13 13 15 13 10 7 8 7 11 8 8 10 9 11 8 4 4
14 13 13 11 6 6 1 1 9 7 6 7 7 8 14 13 13 24 21 15 14 19 18 16 12 6 16 16 14 14 12 9 11 11 11 12 12 12 8 9 11 11 11 10 8
13 12 11 6 7 3 3 8 11 3 6 7 9 5 7 19 8 21 24 17 18 15 15 14 13 15 13 15 13 10 2 11 13 13 13 12 9 9 9 6 10 11 12 11 10
13 10 9 4 4 5 8 12 4 6 9 5 7 11 12 19 10 17 24 17 16 16 15 12 5 14 14 10 11 6 7 6 8 10 10 16 11 7 4 5 8 9 12 12 13
14 9 5 4 4 8 10 5 6 8 4 7 6 9 15 13 17 17 26 25 16 18 15 17 13 10 9 14 13 12 12 8 9 8 6 7 8 11 9 8 8 9 11 12 14
11 9 6 8 4 6 5 6 11 2 15 3 5 5 12 12 19 20 26 25 24 19 13 17 15 20 14 15 14 18 16 9 11 11 9 7 7 8 9 6 8 10 11 13 13
6 5 6 6 10 6 6 11 9 12 9 10 13 12 11 14 10 17 23 25 25 21 10 17 12 22 14 16 15 15 13 13 4 1 6 8 7 7 8 8 9 10 12 13 12
3 5 3 3 7 7 5 16 16 4 11 12 12 2 7 16 13 19 20 25 25 22 15 8 12 13 18 11 12 9 16 10 9 9 11 6 13 10 13 10 10 10 12 9 10
2 4 7 4 7 6 10 14 17 15 9 8 10 9 3 6 12 21 20 10 25 24 18 8 9 10 17 15 16 9 10 10 6 4 8 7 9 13 12 11 11 10 8 9 10
2 2 4 7 5 5 9 7 7 17 12 10 12 8 6 7 7 9 18 10 20 22 22 12 7 14 21 8 6 18 15 16 9 10 7 7 7 12 12 12 11 9 8 8 8
1 2 5 2 5 8 11 12 16 18 22 9 8 4 8 8 3 5 9 12 18 22 20 13 6 10 9 8 7 11 7 7 3 4 7 9 7 13 13 11 9 9 8 7 6
2 2 2 2 4 5 9 13 17 15 22 18 9 10 12 10 4 2 7 3 9 20 12 12 4 12 11 15 17 13 12 12 12 8 9 10 19 17 16 12 10 9 7 5 6
3 1 2 2 7 12 10 11 17 18 19 16 18 17 15 9 6 9 9 4 6 9 15 13 9 10 3 5 8 13 15 14 15 14 9 5 13 19 15 13 10 9 7 4 6
2 3 1 5 8 10 12 12 19 17 20 21 19 12 9 9 7 11 12 7 5 8 15 15 11 9 5 5 10 8 8 10 6 7 4 6 10 18 14 13 10 8 5 5 9
3 2 1 4 6 7 10 16 13 15 15 19 14 17 20 17 15 14 13 14 13 6 17 15 9 12 10 9 11 10 9 8 7 2 7 10 13 16 15 12 9 8 6 5 3
Wind_Direction
349 346 347 346 343 342 339 339 337 341 344 342 342 343 343 338 338 343 45 18 161 167 152 161 179 178 196 201 242 270 248 208 106 132 100 119 319 90 14 151 209 172 85 126 151
344 343 346 344 342 341 335 336 335 336 340 339 339 341 341 336 324 337 354 90 158 155 178 189 189 191 200 202 204 244 262 102 57 76 29 336 309 340 243 184 182 153 116 137 155
338 339 340 340 340 334 333 329 332 332 335 337 337 338 340 334 275 73 360 111 152 149 198 214 213 212 227 208 189 193 256 131 171 314 319 314 300 345 266 262 211 190 163 156 166
333 333 331 334 333 332 328 327 327 330 330 335 333 337 339 325 331 43 28 136 136 172 176 185 201 210 229 212 190 231 239 232 226 302 294 309 325 307 279 8 18 124 159 163 174
330 330 327 327 327 327 325 324 324 326 327 330 328 335 341 302 281 54 29 174 171 167 196 197 216 221 226 222 204 234 224 246 252 283 289 308 291 298 282 107 120 130 155 167 178
316 325 326 325 327 325 324 322 322 322 322 322 322 327 291 288 97 136 119 184 204 201 204 208 225 226 268 235 223 185 243 251 264 271 280 284 306 274 99 152 140 151 160 168 179
305 308 322 325 325 322 320 319 321 320 314 312 313 308 267 267 241 194 209 223 207 212 206 213 236 207 181 222 221 232 243 223 235 254 277 300 261 215 122 170 164 171 167 170 180
317 305 305 320 323 322 318 320 320 312 306 305 299 221 269 261 241 251 231 222 202 200 214 194 209 232 237 39 207 226 230 237 215 219 221 245 166 88 123 187 199 191 173 174 182
327 320 305 311 319 324 319 319 314 305 300 280 199 240 267 171 224 200 201 217 182 176 172 168 202 229 189 220 209 207 233 213 173 201 212 228 278 99 84 248 241 195 193 195 184
331 329 311 308 317 323 322 316 303 277 229 249 249 249 228 227 154 194 214 183 170 163 164 184 204 212 217 210 219 211 221 215 228 173 218 204 253 314 25 313 300 248 204 210 201
335 329 324 307 317 325 331 320 232 200 220 245 313 250 216 207 233 197 175 188 184 182 189 194 207 215 211 217 253 272 244 244 204 124 247 217 249 10 8 7 350 307 270 216 208
336 333 327 311 318 329 325 346 50 357 292 266 250 249 256 274 265 206 181 189 195 200 201 178 220 219 242 205 219 224 228 226 207 209 259 186 245 82 36 44 33 15 349 270 224
334 334 329 317 321 340 336 71 360 328 264 263 232 236 230 213 229 213 199 206 201 207 197 214 191 201 209 202 214 219 231 231 240 165 226 256 234 184 97 70 45 32 12 5 317
334 333 333 323 312 341 44 20 339 311 274 222 203 232 206 197 224 220 201 197 207 209 201 226 155 192 208 220 215 225 212 247 236 228 238 192 250 165 148 89 49 33 25 19 15
335 329 335 336 322 310 3 326 325 248 270 109 146 117 175 194 141 194 197 207 209 203 189 200 207 203 201 217 206 242 175 235 229 227 246 206 241 133 159 75 43 33 30 32 35
328 325 337 321 273 313 322 316 261 224 241 173 152 181 176 211 214 152 183 207 224 200 212 211 197 214 206 185 202 190 192 186 215 220 220 232 224 103 101 60 52 44 39 38 47
330 315 326 284 344 330 322 266 210 243 73 175 208 186 207 183 207 183 181 192 189 194 200 214 186 191 219 190 181 200 189 185 201 200 238 147 209 70 100 77 49 50 54 52 46
323 311 293 239 262 318 301 227 232 5 243 34 281 244 212 193 207 194 187 191 207 201 190 200 204 203 186 218 187 202 203 233 211 206 163 161 196 118 103 88 69 73 73 57 51
319 298 263 262 219 282 231 213 245 269 348 299 289 255 200 201 200 193 199 198 195 196 212 196 222 184 207 202 223 184 221 247 270 359 215 139 78 131 154 112 93 85 75 58 45
296 294 274 252 187 226 228 237 220 258 322 323 275 326 262 192 202 197 193 203 192 199 204 196 204 192 186 196 219 244 204 201 230 178 218 172 175 148 171 138 123 103 77 71 67
260 257 50 131 174 218 234 232 235 253 285 308 331 300 326 323 229 197 187 185 189 193 201 172 232 173 168 203 188 188 208 231 251 294 228 171 204 119 140 140 124 95 87 75 72
299 229 67 155 221 232 246 243 278 251 245 265 295 305 311 330 250 240 211 177 185 189 194 179 230 172 199 176 288 206 211 200 218 180 249 315 105 138 137 129 115 114 97 87 76
262 56 108 229 237 232 262 267 243 247 243 247 252 292 320 324 282 246 235 193 192 187 191 170 211 177 160 169 185 215 212 210 239 300 172 253 143 153 139 127 136 128 112 96 86
265 226 191 168 232 310 299 257 249 230 255 244 251 282 282 325 334 247 190 75 225 188 169 176 191 235 201 197 186 188 195 204 208 227 236 233 132 166 154 151 139 124 107 90 79
228 254 310 205 237 236 252 282 257 237 236 236 238 249 267 297 321 55 23 326 177 179 176 192 206 215 359 124 184 203 202 201 220 232 241 209 170 173 157 158 145 124 115 101 61
279 283 75 294 285 255 230 244 249 232 239 232 236 258 236 245 303 322 332 340 286 189 199 206 213 207 161 182 170 166 175 186 190 154 156 150 115 142 131 135 147 137 127 80 43
223 237 43 267 264 229 231 233 254 261 244 240 256 233 251 267 291 301 287 273 264 293 194 185 180 196 172 180 163 164 153 149 121 144 162 162 149 140 154 162 153 119 85 83 57
Height
829 829 826 822 821 817 816 812 810 807 804 801 796 792 787 781 776 772 766 771 771 772 775 778 779 778 777 771 770 765 770 773 772 768 768 754 756 753 753 760 763 764 764 769 782
827 824 822 821 818 816 814 812 809 806 802 799 796 791 786 780 775 767 771 769 770 772 776 775 774 775 770 769 768 769 769 769 758 758 760 754 755 752 760 759 764 772 773 776 783
823 821 819 818 816 814 812 811 806 804 801 799 795 791 786 780 773 767 769 768 770 772 774 774 772 771 769 764 767 765 768 759 759 756 755 755 751 748 755 756 750 762 772 777 782
823 821 819 816 814 811 810 807 805 801 800 797 794 790 785 781 779 771 770 770 771 774 775 774 772 773 771 773 761 774 760 759 756 755 757 757 749 753 752 750 747 751 763 773 778
823 821 819 816 814 810 806 803 801 799 798 795 794 790 786 778 768 771 771 771 772 774 772 770 772 769 773 764 766 771 761 757 756 755 752 750 754 753 749 746 751 756 763 770 775
822 819 816 814 811 807 804 800 798 797 794 793 792 790 789 783 770 771 772 773 772 772 770 770 768 766 767 768 770 758 759 758 755 754 748 756 748 752 749 748 754 759 763 768 774
818 817 814 811 808 805 802 799 796 793 791 789 788 788 784 774 770 771 771 772 772 770 769 770 770 771 764 770 760 762 773 760 756 752 754 750 755 753 748 749 754 758 762 767 772
816 814 812 810 807 803 798 794 792 789 785 784 785 788 776 768 768 768 769 770 771 771 771 770 772 767 768 764 767 771 767 775 748 752 749 756 760 745 746 750 753 756 760 765 770
813 811 809 807 804 800 796 792 788 784 782 782 784 783 770 763 765 764 765 764 768 770 771 771 770 767 768 774 777 771 775 768 760 749 749 755 754 747 746 750 750 755 761 765 768
812 810 807 804 801 799 795 789 784 782 782 782 783 783 762 757 760 763 764 764 763 766 769 768 767 771 767 770 786 773 776 761 764 755 753 755 755 744 743 750 752 750 757 763 768
811 808 805 803 801 798 792 786 781 777 776 765 762 757 758 758 760 758 760 762 759 762 767 764 773 775 762 761 758 762 764 765 753 756 762 758 758 752 749 751 754 753 753 758 762
810 807 804 801 800 797 794 787 792 795 780 764 761 761 758 760 761 754 757 758 759 766 758 771 773 753 754 762 769 770 772 769 757 758 767 761 764 758 761 762 763 763 760 757 757
809 806 802 800 797 797 796 796 796 794 779 754 749 748 751 756 756 747 750 747 754 759 760 761 752 748 766 768 772 768 769 766 770 764 761 768 771 768 767 762 763 765 766 764 763
809 806 803 800 801 797 795 798 797 795 774 741 745 738 742 745 748 740 744 743 747 754 754 754 746 761 764 764 763 771 757 764 769 775 780 758 785 766 768 766 769 769 770 769 766
808 805 803 802 802 796 799 797 796 795 777 730 735 734 732 737 722 732 736 739 747 747 750 756 754 762 765 761 756 764 756 762 762 768 764 766 778 758 757 772 775 774 773 771 770
808 805 804 804 802 800 799 797 796 786 774 734 729 735 739 736 728 722 733 734 732 742 748 740 739 746 749 747 752 749 761 763 763 763 789 762 766 766 770 781 777 773 773 773 771
806 804 804 804 799 801 799 794 788 773 736 734 732 729 729 733 731 732 735 743 746 760 761 750 749 741 738 754 750 758 764 780 789 785 778 757 770 780 775 776 776 776 776 775 777
805 803 803 803 801 800 798 792 783 750 746 733 732 729 732 723 725 725 729 738 731 735 740 757 769 745 739 743 754 755 755 754 789 777 764 762 771 774 771 771 773 774 776 780 784
804 803 801 800 800 801 791 788 772 756 753 745 736 737 726 719 718 722 721 725 724 724 742 747 750 727 729 734 733 746 759 733 755 750 754 758 773 773 770 772 776 779 781 790 788
805 802 798 800 801 801 792 776 764 759 762 751 749 733 725 719 724 719 718 711 719 718 715 733 755 731 731 729 730 740 728 761 748 777 783 773 776 761 773 773 774 778 786 794 793
804 793 801 802 803 795 782 776 768 763 763 762 751 746 736 726 714 714 711 705 706 717 714 725 736 741 732 740 737 745 744 740 735 748 760 779 770 745 762 766 774 790 795 794 796
800 787 803 804 797 784 781 777 779 766 760 760 753 747 743 738 728 713 709 707 698 709 724 721 730 743 738 718 720 717 726 732 749 767 748 753 767 749 763 770 781 793 795 796 796
795 793 804 804 792 785 783 779 775 768 760 756 754 747 743 741 737 721 707 695 698 706 718 719 737 742 748 738 729 732 727 724 732 736 756 762 761 753 762 780 785 790 793 795 794
798 794 801 807 801 800 791 785 771 764 760 750 755 752 748 743 731 732 715 710 702 701 711 718 729 730 738 729 719 737 735 729 734 750 744 746 762 763 767 783 788 790 794 792 791
797 791 793 798 796 793 791 787 771 763 753 748 755 752 753 754 736 732 728 718 711 710 709 718 736 725 723 713 715 721 726 728 735 732 745 734 745 755 768 776 783 789 794 795 794
797 793 803 793 791 789 788 779 769 756 755 747 751 746 740 750 744 745 738 733 719 715 712 715 734 725 733 724 721 731 726 726 726 730 734 737 746 745 771 779 785 787 791 789 797
796 799 800 798 791 788 776 775 763 755 747 744 743 746 750 743 735 733 732 732 732 725 718 723 721 733 739 728 729 747 734 731 737 738 732 748 747 765 780 783 786 795 800 805 805